�������l�o���
Date,Time,MP-1(��Sv/h),MP-2(��Sv/h),MP-3(��Sv/h),MP-4(��Sv/h),MP-5(��Sv/h),MP-6(��Sv/h),MP-7(��Sv/h),MP-8(��Sv/h),����,����(m/s),���J
2018/10/01,00:00,0.752,1.103,0.788,1.384,0.991,0.450,0.783,0.744,��쓌,19.1,�L
2018/10/01,00:10,0.752,1.104,0.790,1.388,0.991,0.451,0.784,0.744,��쓌,17.4,�L
2018/10/01,00:20,0.750,1.106,0.789,1.389,0.989,0.453,0.786,0.746,��쓌,20.5,�L
2018/10/01,00:30,0.751,1.105,0.791,1.389,0.989,0.455,0.785,0.746,��쓌,23.1,�L
2018/10/01,00:40,0.751,1.104,0.790,1.388,0.985,0.456,0.785,0.744,��쓌,23.5,�L
2018/10/01,00:50,0.749,1.098,0.787,1.382,0.980,0.455,0.784,0.743,��쓌,24.2,�L
2018/10/01,01:00,0.748,1.096,0.786,1.381,0.978,0.455,0.784,0.743,-,CALM,�L
2018/10/01,01:10,0.749,1.098,0.788,1.382,0.979,0.456,0.782,0.743,��쓌,16.3,�L
2018/10/01,01:20,0.750,1.099,0.789,1.381,0.981,0.459,0.783,0.743,�쓌,18.5,�L
2018/10/01,01:30,0.751,1.099,0.789,1.383,0.982,0.458,0.784,0.743,-,CALM,�L
2018/10/01,01:40,0.750,1.095,0.787,1.382,0.976,0.458,0.783,0.744,-,CALM,�L
2018/10/01,01:50,0.744,1.092,0.785,1.374,0.973,0.458,0.781,0.743,�쓌,12.7,�L
2018/10/01,02:00,0.743,1.089,0.782,1.371,0.970,0.457,0.779,0.740,-,CALM,�L
2018/10/01,02:10,0.738,1.081,0.779,1.366,0.960,0.455,0.779,0.739,-,CALM,�L
2018/10/01,02:20,0.733,1.070,0.773,1.354,0.948,0.453,0.774,0.735,-,CALM,�L
2018/10/01,02:30,0.726,1.056,0.766,1.343,0.933,0.436,0.768,0.731,-,CALM,�L
2018/10/01,02:40,0.724,1.048,0.757,1.332,0.912,0.404,0.767,0.727,-,CALM,�L
2018/10/01,02:50,0.733,1.065,0.754,1.340,0.915,0.409,0.771,0.732,-,CALM,�L
2018/10/01,03:00,0.740,1.071,0.755,1.345,0.921,0.431,0.772,0.735,-,CALM,�L
2018/10/01,03:10,0.742,1.077,0.757,1.356,0.923,0.443,0.775,0.736,-,CALM,�L
2018/10/01,03:20,0.743,1.078,0.757,1.356,0.920,0.454,0.775,0.736,��,15.8,�L
2018/10/01,03:30,0.744,1.085,0.762,1.358,0.924,0.459,0.777,0.739,-,CALM,�L
2018/10/01,03:40,0.750,1.085,0.763,1.360,0.926,0.463,0.778,0.738,��,15.8,�L
2018/10/01,03:50,0.749,1.090,0.768,1.362,0.927,0.466,0.777,0.740,��,11.6,�L
2018/10/01,04:00,0.752,1.094,0.770,1.368,0.929,0.467,0.780,0.741,��쐼,11.0,�L
2018/10/01,04:10,0.755,1.097,0.775,1.372,0.934,0.466,0.781,0.742,��,12.2,�L
2018/10/01,04:20,0.756,1.100,0.778,1.376,0.937,0.464,0.782,0.744,��,12.5,�L
2018/10/01,04:30,0.756,1.103,0.779,1.379,0.940,0.464,0.783,0.744,��,12.8,�L
2018/10/01,04:40,0.757,1.102,0.779,1.380,0.939,0.462,0.782,0.744,��,11.9,��
2018/10/01,04:50,0.755,1.102,0.781,1.385,0.944,0.462,0.782,0.744,��,9.5,��
2018/10/01,05:00,0.754,1.106,0.781,1.386,0.942,0.460,0.784,0.744,��,12.8,��
2018/10/01,05:10,0.754,1.105,0.782,1.386,0.946,0.462,0.785,0.744,��쐼,11.7,��
2018/10/01,05:20,0.756,1.108,0.781,1.389,0.947,0.459,0.786,0.745,�쐼,10.6,�L
2018/10/01,05:30,0.758,1.111,0.785,1.388,0.951,0.459,0.784,0.746,�쐼,12.4,�L
2018/10/01,05:40,0.756,1.108,0.785,1.394,0.950,0.460,0.784,0.748,���쐼,14.2,��
2018/10/01,05:50,0.756,1.110,0.785,1.397,0.953,0.458,0.786,0.748,���쐼,13.3,�L
2018/10/01,06:00,0.756,1.113,0.786,1.400,0.955,0.458,0.787,0.747,��,11.7,��
2018/10/01,06:10,0.756,1.113,0.788,1.400,0.955,0.459,0.788,0.747,��,17.6,��
2018/10/01,06:20,0.756,1.112,0.789,1.401,0.956,0.459,0.788,0.747,��,16.1,��
2018/10/01,06:30,0.759,1.115,0.787,1.402,0.959,0.457,0.789,0.749,��,12.0,��
2018/10/01,06:40,0.758,1.117,0.789,1.403,0.960,0.457,0.789,0.749,���쐼,7.7,��
2018/10/01,06:50,0.757,1.118,0.788,1.403,0.961,0.458,0.788,0.748,���쐼,8.7,��
2018/10/01,07:00,0.757,1.117,0.790,1.406,0.963,0.457,0.790,0.746,�쐼,5.7,��
2018/10/01,07:10,0.757,1.116,0.791,1.406,0.962,0.456,0.790,0.746,���쐼,8.9,��
2018/10/01,07:20,0.759,1.118,0.787,1.406,0.964,0.457,0.790,0.749,���쐼,3.9,��
2018/10/01,07:30,0.757,1.121,0.788,1.408,0.966,0.457,0.790,0.749,���쐼,6.0,��
2018/10/01,07:40,0.756,1.119,0.790,1.408,0.968,0.459,0.789,0.748,��,4.1,��
2018/10/01,07:50,0.759,1.121,0.792,1.409,0.968,0.457,0.791,0.749,���쐼,4.7,��
2018/10/01,08:00,0.758,1.119,0.791,1.409,0.971,0.458,0.790,0.749,�쐼,3.1,��
2018/10/01,08:10,0.759,1.122,0.792,1.412,0.970,0.456,0.790,0.750,���쐼,3.5,��
2018/10/01,08:20,0.759,1.123,0.792,1.411,0.971,0.458,0.791,0.748,��,1.2,��
2018/10/01,08:30,0.759,1.125,0.791,1.411,0.973,0.457,0.793,0.750,���쐼,2.6,��
2018/10/01,08:40,0.761,1.123,0.795,1.410,0.973,0.458,0.792,0.749,�k��,2.9,��
2018/10/01,08:50,0.760,1.126,0.793,1.412,0.974,0.459,0.791,0.749,��쓌,1.9,��
2018/10/01,09:00,0.759,1.128,0.795,1.412,0.974,0.458,0.793,0.749,��,4.1,��
2018/10/01,09:10,0.763,1.125,0.795,1.413,0.975,0.457,0.793,0.747,���쐼,2.6,��
2018/10/01,09:20,0.760,1.127,0.795,1.413,0.978,0.458,0.792,0.748,��,4.3,��
2018/10/01,09:30,0.761,1.129,0.793,1.415,0.981,0.457,0.793,0.748,���쐼,4.7,��
2018/10/01,09:40,0.762,1.128,0.796,1.415,0.980,0.458,0.794,0.750,���쐼,7.2,��
2018/10/01,09:50,0.764,1.127,0.796,1.416,0.980,0.459,0.793,0.748,���쐼,3.3,��
2018/10/01,10:00,0.763,1.128,0.797,1.416,0.981,0.459,0.793,0.748,���쐼,6.2,��
2018/10/01,10:10,0.764,1.130,0.796,1.416,0.980,0.457,0.792,0.749,���쐼,6.0,��
2018/10/01,10:20,0.762,1.132,0.797,1.420,0.982,0.459,0.793,0.751,��,5.6,��
2018/10/01,10:30,0.761,1.130,0.796,1.417,0.981,0.459,0.793,0.748,���k��,5.0,��
2018/10/01,10:40,0.763,1.130,0.796,1.419,0.981,0.460,0.793,0.750,��,3.9,��
2018/10/01,10:50,0.763,1.132,0.796,1.420,0.981,0.459,0.793,0.751,���쐼,3.6,��
2018/10/01,11:00,0.763,1.134,0.796,1.421,0.983,0.460,0.796,0.750,���k��,7.3,��
2018/10/01,11:10,0.763,1.134,0.795,1.421,0.985,0.461,0.794,0.750,��,4.1,��
2018/10/01,11:20,0.765,1.136,0.797,1.423,0.986,0.461,0.796,0.749,��,5.4,��
2018/10/01,11:30,0.762,1.137,0.797,1.420,0.985,0.462,0.795,0.750,��,6.2,��
2018/10/01,11:40,0.763,1.134,0.799,1.422,0.987,0.460,0.794,0.752,��,7.5,��
2018/10/01,11:50,0.763,1.138,0.798,1.423,0.987,0.461,0.796,0.750,���k��,11.7,��
2018/10/01,12:00,0.764,1.135,0.798,1.422,0.987,0.459,0.797,0.752,���k��,9.2,��
2018/10/01,12:10,0.765,1.138,0.799,1.428,0.989,0.461,0.797,0.752,���k��,9.3,��
2018/10/01,12:20,0.765,1.141,0.800,1.425,0.990,0.461,0.796,0.753,���k��,12.5,��
2018/10/01,12:30,0.767,1.136,0.798,1.426,0.991,0.460,0.796,0.752,���k��,9.4,��
2018/10/01,12:40,0.768,1.140,0.799,1.428,0.991,0.459,0.797,0.752,���k��,10.5,��
2018/10/01,12:50,0.766,1.138,0.801,1.427,0.991,0.461,0.797,0.752,��,10.5,��
2018/10/01,13:00,0.766,1.137,0.799,1.430,0.992,0.462,0.798,0.754,��,12.4,��
2018/10/01,13:10,0.766,1.141,0.800,1.429,0.993,0.463,0.796,0.753,���k��,9.8,��
2018/10/01,13:20,0.768,1.139,0.802,1.431,0.994,0.463,0.799,0.754,���k��,10.3,��
2018/10/01,13:30,0.768,1.138,0.802,1.431,0.995,0.462,0.799,0.753,���k��,8.3,��
2018/10/01,13:40,0.770,1.143,0.803,1.430,0.996,0.461,0.800,0.753,���k��,12.4,��
2018/10/01,13:50,0.768,1.144,0.801,1.433,0.996,0.464,0.797,0.754,��,9.6,��
2018/10/01,14:00,0.768,1.141,0.801,1.432,0.996,0.459,0.799,0.754,���k��,8.9,��
2018/10/01,14:10,0.768,1.141,0.803,1.432,0.998,0.461,0.800,0.754,���k��,9.4,��
2018/10/01,14:20,0.768,1.142,0.802,1.433,0.996,0.461,0.800,0.756,���k��,8.4,��
2018/10/01,14:30,0.767,1.144,0.802,1.435,0.995,0.460,0.798,0.754,���k��,8.2,��
2018/10/01,14:40,0.770,1.142,0.804,1.433,0.997,0.459,0.798,0.753,���k��,8.2,��
2018/10/01,14:50,0.771,1.144,0.805,1.437,0.999,0.459,0.798,0.755,���k��,9.6,��
2018/10/01,15:00,0.770,1.147,0.802,1.435,0.999,0.459,0.799,0.755,���k��,7.9,��
2018/10/01,15:10,0.768,1.148,0.804,1.437,0.999,0.460,0.798,0.754,���k��,8.3,��
2018/10/01,15:20,0.770,1.146,0.804,1.437,1.000,0.460,0.800,0.754,���k��,8.7,��
2018/10/01,15:30,0.769,1.149,0.803,1.437,0.999,0.460,0.799,0.753,���k��,6.2,��
2018/10/01,15:40,0.769,1.149,0.803,1.437,0.999,0.460,0.798,0.755,��,6.7,��
2018/10/01,15:50,0.769,1.149,0.803,1.436,0.998,0.461,0.799,0.754,���k��,5.5,��
2018/10/01,16:00,0.769,1.150,0.803,1.438,0.999,0.462,0.799,0.755,���k��,4.8,��
2018/10/01,16:10,0.769,1.149,0.803,1.439,1.001,0.461,0.799,0.754,�k�k��,1.7,��
2018/10/01,16:20,0.769,1.151,0.800,1.437,1.000,0.462,0.799,0.755,��,1.4,��
2018/10/01,16:30,0.770,1.152,0.803,1.439,1.004,0.463,0.800,0.756,���k��,5.8,��
2018/10/01,16:40,0.768,1.150,0.804,1.437,1.004,0.461,0.801,0.753,���k��,6.0,��
2018/10/01,16:50,0.768,1.150,0.806,1.438,1.003,0.462,0.798,0.753,�k��,5.0,��
2018/10/01,17:00,0.767,1.153,0.804,1.438,1.004,0.459,0.799,0.756,�k��,7.2,��
2018/10/01,17:10,0.770,1.153,0.804,1.438,1.004,0.461,0.800,0.756,�k��,6.8,��
2018/10/01,17:20,0.768,1.157,0.803,1.438,1.002,0.461,0.798,0.755,���k��,3.5,��
2018/10/01,17:30,0.768,1.153,0.806,1.435,1.003,0.461,0.799,0.756,���k��,4.6,��
2018/10/01,17:40,0.768,1.154,0.806,1.436,1.002,0.461,0.797,0.756,�k��,3.4,��
2018/10/01,17:50,0.768,1.152,0.807,1.439,1.003,0.461,0.798,0.757,���k��,2.3,��
2018/10/01,18:00,0.769,1.153,0.805,1.438,1.004,0.461,0.800,0.757,��,3.4,��
2018/10/01,18:10,0.769,1.153,0.805,1.440,1.002,0.460,0.799,0.757,���k��,6.0,��
2018/10/01,18:20,0.769,1.155,0.808,1.439,1.003,0.460,0.798,0.757,���k��,5.1,��
2018/10/01,18:30,0.770,1.156,0.808,1.438,1.004,0.461,0.798,0.757,���k��,5.8,��
2018/10/01,18:40,0.770,1.152,0.807,1.439,1.003,0.462,0.798,0.757,�k��,8.2,��
2018/10/01,18:50,0.768,1.154,0.807,1.439,1.006,0.461,0.799,0.758,�k��,6.9,��
2018/10/01,19:00,0.769,1.155,0.809,1.437,1.005,0.461,0.798,0.757,�k��,6.3,��
2018/10/01,19:10,0.769,1.157,0.806,1.440,1.006,0.458,0.800,0.757,�k��,7.4,��
2018/10/01,19:20,0.767,1.155,0.807,1.438,1.008,0.460,0.800,0.757,���k��,5.8,��
2018/10/01,19:30,0.770,1.156,0.806,1.438,1.006,0.460,0.798,0.757,���k��,4.2,�L
2018/10/01,19:40,0.770,1.155,0.808,1.439,1.008,0.459,0.799,0.756,���k��,4.4,��
2018/10/01,19:50,0.769,1.155,0.807,1.439,1.006,0.460,0.799,0.757,���k��,6.3,��
2018/10/01,20:00,0.770,1.158,0.809,1.440,1.006,0.461,0.800,0.757,���k��,5.7,��
2018/10/01,20:10,0.769,1.155,0.807,1.440,1.007,0.459,0.800,0.757,��,3.9,��
2018/10/01,20:20,0.769,1.157,0.808,1.441,1.007,0.461,0.798,0.757,��,6.0,��
2018/10/01,20:30,0.771,1.155,0.808,1.441,1.006,0.460,0.798,0.758,���k��,6.0,��
2018/10/01,20:40,0.771,1.158,0.807,1.439,1.009,0.460,0.800,0.757,���k��,8.9,��
2018/10/01,20:50,0.771,1.156,0.806,1.442,1.006,0.459,0.799,0.757,��,7.7,��
2018/10/01,21:00,0.770,1.155,0.808,1.444,1.007,0.458,0.801,0.758,��,10.7,��
2018/10/01,21:10,0.769,1.155,0.808,1.444,1.008,0.459,0.800,0.759,��,9.9,��
2018/10/01,21:20,0.770,1.156,0.807,1.442,1.007,0.459,0.800,0.759,��,10.0,��
2018/10/01,21:30,0.767,1.155,0.807,1.442,1.010,0.461,0.799,0.757,��,9.0,��
2018/10/01,21:40,0.769,1.156,0.807,1.443,1.007,0.460,0.798,0.757,��,8.3,��
2018/10/01,21:50,0.770,1.157,0.807,1.443,1.006,0.460,0.801,0.757,��,7.7,��
2018/10/01,22:00,0.770,1.159,0.806,1.441,1.008,0.459,0.799,0.756,��,5.8,��
2018/10/01,22:10,0.767,1.159,0.809,1.443,1.009,0.460,0.800,0.756,��,4.1,��
2018/10/01,22:20,0.770,1.157,0.806,1.443,1.008,0.459,0.800,0.757,��,5.5,��
2018/10/01,22:30,0.769,1.157,0.808,1.443,1.010,0.460,0.800,0.758,���k��,8.6,��
2018/10/01,22:40,0.768,1.159,0.809,1.445,1.009,0.461,0.800,0.757,���k��,7.3,�L
2018/10/01,22:50,0.768,1.159,0.806,1.446,1.009,0.460,0.800,0.759,��,5.0,�L
2018/10/01,23:00,0.771,1.157,0.808,1.446,1.009,0.461,0.799,0.759,���k��,6.0,��
2018/10/01,23:10,0.771,1.158,0.808,1.444,1.010,0.461,0.800,0.759,���k��,3.0,��
2018/10/01,23:20,0.770,1.159,0.809,1.446,1.010,0.462,0.801,0.758,�k��,4.5,��
2018/10/01,23:30,0.770,1.160,0.809,1.445,1.009,0.459,0.798,0.758,�k��,5.3,��
2018/10/01,23:40,0.769,1.160,0.810,1.446,1.009,0.460,0.801,0.758,�k��,3.0,��
2018/10/01,23:50,0.771,1.159,0.809,1.446,1.011,0.460,0.800,0.759,�k��,4.8,��
